Santa Ana, CA

4:32 PM PDT on August 30, 2016 (GMT -0700)
John Wayne-Orange County

Weather History for KSNA - March, 2012

Change the Weather History Date:

Wednesday, March 21, 2012

  Actual Average Record
Temperature  
Mean Temperature 62 °F 60 °F  
Max Temperature 75 °F 68 °F 76 °F (2008)
Min Temperature 49 °F 52 °F 47 °F (2011)
Degree Days  
Heating Degree Days 3 5  
Month to date heating degree days 125 129  
Since 1 July heating degree days 929 1035  
Cooling Degree Days 0 0  
Month to date cooling degree days 8 0  
Year to date cooling degree days 23 8  
Growing Degree Days 10 (Base 50)    
Moisture  
Dew Point 40 °F    
Average Humidity 47    
Maximum Humidity 72    
Minimum Humidity 22    
Precipitation  
Precipitation 0.00 in 0.03 in 0.24 in (2011)
Month to date precipitation 0.57 1.62  
Year to date precipitation 1.94 7.48  
Since 1 July precipitation 4.39  
Snow  
Snow 0.00 in - - ()
Month to date snowfall 0.0  
Year to date snowfall 0.0  
Snow Depth 0.00 in    
Sea Level Pressure  
Sea Level Pressure 30.03 in    
Wind  
Wind Speed 3 mph (WSW)    
Max Wind Speed 8 mph    
Max Gust Speed -    
Visibility 10 miles    
Events      
T = Trace of Precipitation, MM = Missing Value Source: NWS Daily Summary

Daily Weather History Graph

Daily Weather History Graph

Search for Another Location

Airport or City:

Trip Planner

Search our weather history database for the weather conditions in past years. The results will help you decide how hot, cold, wet, or windy it might be!

Date:

Astronomy

Mar. 21, 2012 Rise Set
Actual Time 6:53 AM PDT 7:04 PM PDT
Civil Twilight 6:28 AM PDT 7:29 PM PDT
Nautical Twilight 5:59 AM PDT 7:58 PM PDT
Astronomical Twilight 5:29 AM PDT 8:27 PM PDT
Moon 6:05 AM PDT (3/21) 6:34 PM PDT (3/21)
Length of Visible Light 13h 01m
Length of Day
12h 11m
Waning Crescent, 1% of the Moon is Illuminated
Mar 21
Waning Crescent
Mar 22
New
Mar 30
First Quarter
Apr 6
Full
Apr 13
Last Quarter

Hourly Weather History & Observations

Time (PDT) Temp. Dew Point Humidity Pressure Visibility Wind Dir Wind Speed Gust Speed Precip Events Conditions
12:53 AM 54.0 °F 44.1 °F 69% 30.12 in 10.0 mi SW 3.5 mph - N/A   Clear
1:53 AM 53.1 °F 45.0 °F 74% 30.12 in 10.0 mi Calm Calm - N/A   Clear
2:53 AM 52.0 °F 42.1 °F 69% 30.11 in 10.0 mi Calm Calm - N/A   Clear
3:53 AM 51.1 °F 42.1 °F 71% 30.10 in 10.0 mi Calm Calm - N/A   Clear
4:53 AM 50.0 °F 39.9 °F 68% 30.09 in 10.0 mi Calm Calm - N/A   Clear
5:53 AM 50.0 °F 39.0 °F 66% 30.10 in 10.0 mi Calm Calm - N/A   Partly Cloudy
6:53 AM 48.9 °F 39.9 °F 71% 30.10 in 10.0 mi Calm Calm - N/A   Partly Cloudy
7:53 AM 52.0 °F 42.1 °F 69% 30.10 in 10.0 mi South 3.5 mph - N/A   Clear
8:53 AM 57.9 °F 42.1 °F 56% 30.10 in 10.0 mi Calm Calm - N/A   Partly Cloudy
9:53 AM 62.1 °F 42.1 °F 48% 30.08 in 10.0 mi Calm Calm - N/A   Partly Cloudy
10:53 AM 68.0 °F 39.0 °F 35% 30.06 in 10.0 mi NNW 4.6 mph - N/A   Partly Cloudy
11:53 AM 72.0 °F 34.0 °F 25% 30.04 in 10.0 mi Variable 3.5 mph - N/A   Partly Cloudy
12:53 PM 73.9 °F 39.0 °F 28% 30.02 in 10.0 mi Variable 5.8 mph - N/A   Partly Cloudy
1:53 PM 73.0 °F 34.0 °F 24% 30.01 in 10.0 mi WSW 8.1 mph - N/A   Partly Cloudy
2:53 PM 72.0 °F 35.1 °F 26% 29.98 in 10.0 mi WSW 8.1 mph - N/A   Partly Cloudy
3:53 PM 71.1 °F 32.0 °F 24% 29.96 in 10.0 mi West 8.1 mph - N/A   Partly Cloudy
4:53 PM 71.1 °F 30.9 °F 23% 29.95 in 10.0 mi Variable 4.6 mph - N/A   Clear
5:53 PM 70.0 °F 30.0 °F 23% 29.94 in 10.0 mi West 4.6 mph - N/A   Clear
6:53 PM 66.9 °F 35.1 °F 31% 29.95 in 10.0 mi West 4.6 mph - N/A   Clear
7:53 PM 64.0 °F 39.0 °F 40% 29.97 in 10.0 mi West 3.5 mph - N/A   Clear
8:53 PM 61.0 °F 43.0 °F 52% 29.98 in 10.0 mi Calm Calm - N/A   Clear
9:53 PM 59.0 °F 45.0 °F 60% 29.98 in 10.0 mi WSW 3.5 mph - N/A   Clear
10:53 PM 57.9 °F 46.9 °F 67% 29.99 in 10.0 mi Calm Calm - N/A   Clear
11:53 PM 55.9 °F 46.9 °F 72% 29.98 in 10.0 mi North - - N/A   Clear